Dewpoint
52 52 51 51 51 51 51 50 50 50 49 49 49 48 48 48 48 40 37 41 46 49 43 36 34 35 37 40 41 42 36 33 34 34 34 37 36 43 44 37 36 48 55 53 56
51 51 51 51 51 51 51 50 50 49 49 48 48 48 47 48 40 33 42 46 45 47 36 36 34 36 34 36 39 36 34 30 33 36 36 36 39 39 43 43 41 44 50 51 61
51 51 51 50 50 50 50 50 50 49 49 48 48 48 47 45 31 30 43 46 46 42 34 34 36 36 34 35 36 35 31 33 35 37 38 34 38 41 42 42 43 44 49 51 55
51 51 50 50 50 50 50 50 49 48 48 46 47 47 46 38 19 28 46 47 47 37 34 34 36 34 30 31 36 33 32 33 32 32 36 37 40 39 42 45 51 50 51 53 54
51 50 49 49 49 50 49 48 46 46 46 45 47 46 40 25 26 32 45 42 32 33 32 33 35 34 31 32 36 36 33 34 37 38 38 39 38 40 45 51 51 50 50 51 54
50 49 49 49 49 50 47 46 45 45 46 45 45 44 34 20 28 34 35 33 28 32 33 34 33 36 34 33 34 37 34 35 36 35 38 38 38 42 45 49 47 47 49 50 52
49 49 49 49 49 49 46 46 45 44 45 45 43 39 33 24 34 35 34 28 28 32 32 35 38 35 34 33 36 36 33 35 36 36 35 39 36 37 43 45 46 44 48 49 52
49 48 48 48 48 47 45 45 44 43 44 43 44 37 25 30 31 26 26 26 29 40 36 38 40 36 36 36 34 35 33 28 32 35 37 38 34 37 45 44 43 44 46 49 52
49 48 48 48 48 45 44 44 41 44 43 45 31 31 18 28 23 27 26 27 27 38 39 37 36 33 31 30 26 28 23 27 27 33 34 36 35 38 45 43 43 43 44 49 52
48 47 48 47 47 43 43 41 38 35 33 27 28 21 19 21 26 28 27 29 28 34 31 34 32 28 27 28 19 22 25 27 28 35 33 35 35 39 44 42 43 43 45 49 51
47 47 48 47 44 41 37 31 24 19 30 26 25 25 23 26 28 22 30 30 29 28 26 30 24 23 25 28 29 25 26 25 32 29 31 33 33 36 41 43 41 42 45 49 50
47 47 47 46 44 40 34 32 33 33 23 28 27 29 27 29 24 20 29 29 28 26 27 25 21 24 26 29 25 28 25 23 25 27 29 32 32 34 39 41 42 41 43 48 50
47 47 48 44 44 38 32 33 36 36 24 14 14 23 18 20 19 17 27 28 29 24 26 24 24 26 25 28 26 23 25 23 24 26 30 32 31 33 39 41 40 43 44 49 49
47 47 47 40 27 35 30 34 36 29 9 1 12 14 18 21 14 17 24 29 29 24 28 23 24 24 24 24 28 22 28 27 27 24 24 30 23 28 37 37 39 42 45 49 49
47 46 44 38 28 30 32 34 36 22 -6 3 14 18 19 15 15 12 26 25 27 21 23 18 22 23 24 23 26 25 32 32 28 27 23 27 26 24 37 37 41 41 46 48 49
46 42 40 39 30 32 34 28 20 11 -13 12 15 14 18 17 15 16 25 20 24 14 13 20 21 27 26 27 25 31 33 30 29 24 16 21 24 23 28 30 40 44 46 46 48
45 39 37 31 25 33 30 22 12 2 11 5 11 13 17 14 12 13 19 16 12 3 3 10 11 19 25 25 25 28 27 13 11 13 14 24 25 21 21 27 28 41 44 45 50
43 39 32 29 32 33 23 18 -3 8 13 13 13 16 15 14 12 11 19 15 18 9 3 9 7 15 19 26 25 26 27 14 6 11 19 30 21 20 26 28 30 38 44 45 49
38 31 25 29 31 25 21 7 6 12 15 12 14 12 12 14 11 11 10 14 18 14 4 6 10 16 19 28 25 22 23 29 16 18 19 22 26 26 27 28 29 31 43 45 46
32 26 22 29 27 23 20 12 14 16 16 15 11 13 12 12 9 8 6 15 14 18 17 13 10 14 23 26 27 24 27 23 19 9 12 21 23 22 25 27 29 30 31 34 45
27 19 20 28 25 21 11 12 18 16 17 16 13 14 12 10 11 10 5 13 17 17 18 19 14 12 20 24 23 23 23 27 26 20 16 18 21 28 27 27 28 30 31 33 36
23 17 25 24 18 9 13 19 18 15 17 16 16 14 12 12 10 8 10 14 18 17 10 20 11 7 18 26 28 29 27 27 22 20 21 16 21 31 29 30 28 30 31 35 40
22 20 26 21 10 9 17 16 18 16 15 15 15 16 15 13 3 7 12 15 17 17 17 19 6 5 9 17 21 20 22 23 24 25 21 17 19 30 27 26 27 29 30 34 47
24 16 22 22 18 17 12 14 15 18 16 15 15 16 15 13 13 11 12 15 16 17 24 23 14 13 13 16 22 15 16 21 24 21 23 23 24 24 25 24 25 28 29 31 35
24 18 20 11 15 16 12 17 14 14 16 16 14 14 15 1 6 7 12 14 16 20 20 15 6 13 17 20 21 19 17 20 22 22 23 24 21 22 26 27 25 29 28 29 29
22 21 22 20 19 10 8 9 14 15 16 13 15 15 15 9 10 5 12 15 15 18 11 14 10 17 15 23 18 15 16 19 18 17 22 24 22 25 27 26 24 26 26 27 28
27 26 23 19 14 7 8 11 16 16 14 16 16 15 15 16 17 17 18 19 20 20 9 9 10 9 6 15 19 12 14 17 18 18 19 15 20 23 22 24 25 25 26 26 27
Lifted_Index
15 15 15 16 16 15 15 15 15 15 15 15 15 15 15 15 16 16 15 14 12 10 8 7 6 5 4 3 1 1 1 1 1 1 1 0 -1 -1 -1 -1 -0 -0 -1 -3 -4
15 15 15 16 16 15 15 15 15 15 15 15 15 15 15 16 17 17 15 13 11 9 8 7 6 5 4 3 1 1 1 1 1 1 1 0 -1 -1 -1 -1 -0 -0 -1 -2 -4
15 15 15 16 16 16 15 15 15 15 15 15 15 15 15 16 17 16 14 12 10 8 7 6 6 5 4 3 2 1 1 1 1 1 1 1 -0 -1 -1 -1 -1 -0 -0 -1 -3
15 15 16 16 16 16 15 15 15 15 15 15 15 15 15 16 16 16 13 10 8 7 7 6 6 5 5 3 2 2 2 1 1 1 1 1 -0 -1 -1 -1 -1 -1 -1 -1 -2
15 15 16 16 16 15 15 15 15 15 15 15 15 15 16 17 16 15 13 10 8 7 7 6 6 6 5 4 3 2 2 1 1 1 1 1 0 -0 -0 -1 -1 -1 -1 -1 -1
15 16 16 16 15 15 16 16 16 16 15 15 15 16 16 17 16 15 12 9 7 7 6 6 6 5 5 4 3 2 1 1 1 0 0 0 0 0 0 1 -0 -1 -1 -0 -1
15 16 16 16 15 15 16 16 16 16 15 15 15 16 16 16 16 14 10 8 7 7 6 6 5 5 5 4 3 2 1 1 1 0 0 0 0 0 1 1 1 -0 -0 -0 -0
15 15 16 15 15 16 16 17 16 16 15 15 16 16 17 16 15 13 10 8 7 6 5 5 5 5 4 4 3 2 2 1 1 0 1 0 0 0 1 2 2 1 0 0 -0
15 16 16 15 16 16 17 17 17 17 16 16 16 17 17 16 14 12 9 8 7 6 5 4 4 5 4 4 3 2 2 1 1 1 1 1 0 0 1 2 3 2 1 -0 -0
16 16 16 16 16 17 18 18 18 18 18 17 17 17 17 16 14 12 9 8 7 6 5 4 4 4 4 4 3 3 2 1 1 1 1 1 0 0 1 3 3 2 1 0 -1
16 16 16 16 17 18 18 18 18 18 18 18 18 17 18 17 14 12 9 8 7 6 5 4 4 4 4 4 4 3 3 2 1 1 1 1 1 1 2 3 4 3 2 1 -0
16 15 15 16 17 18 19 18 18 18 18 18 18 18 18 17 14 11 9 8 7 6 5 4 3 3 4 4 4 4 3 2 2 2 2 1 1 1 2 3 4 4 3 2 0
15 15 15 16 18 19 19 18 18 17 16 16 18 18 18 16 14 12 9 8 7 6 5 4 3 3 3 4 4 4 3 3 3 3 2 2 1 1 2 3 4 4 4 2 1
15 15 16 17 18 19 18 18 18 15 13 13 16 18 18 16 14 12 10 9 7 6 4 3 3 2 3 4 4 4 4 3 3 3 3 2 1 1 1 2 3 4 4 3 2
15 15 17 18 19 18 18 18 17 13 9 11 15 17 17 16 15 13 11 9 8 6 5 3 3 2 3 3 4 4 3 3 3 3 3 2 1 1 1 2 3 3 3 3 3
15 16 17 18 18 18 18 17 14 9 7 10 14 15 15 15 15 13 11 10 8 6 4 3 3 2 3 3 4 3 2 2 2 2 2 2 1 1 2 2 2 3 3 3 3
16 17 18 18 18 18 17 14 9 7 9 11 13 14 14 14 13 12 11 9 8 6 4 3 3 2 3 3 3 2 2 1 1 1 1 1 1 2 2 2 2 3 3 3 3
17 17 18 19 19 18 16 11 7 8 10 12 13 13 13 13 13 12 10 9 9 7 5 3 2 2 3 3 3 2 1 1 1 1 1 1 1 1 2 2 2 3 3 3 3
17 17 17 19 19 18 13 9 8 10 12 12 12 12 12 12 12 11 10 10 10 9 6 3 2 2 3 2 2 2 1 2 1 1 1 1 1 1 1 2 2 2 3 3 3
16 16 17 18 19 16 12 9 10 13 14 13 11 11 11 11 11 11 10 11 11 10 7 4 2 2 2 2 2 2 1 2 2 1 0 0 1 1 1 1 1 2 2 3 3
14 14 16 18 17 14 11 11 13 15 16 14 12 12 12 11 11 10 10 11 12 10 8 5 3 2 2 2 2 2 1 1 1 1 1 0 1 1 1 1 1 1 1 2 2
13 13 16 17 14 12 12 13 14 16 16 15 14 13 13 12 11 11 11 11 12 10 7 5 3 2 1 2 2 2 2 1 1 1 1 1 1 2 3 2 1 1 1 1 1
12 13 15 16 13 12 12 13 14 15 15 15 14 15 14 13 11 11 11 11 11 9 7 4 3 2 1 2 2 2 2 2 1 1 1 1 2 3 3 2 2 1 1 1 1
12 13 14 14 14 13 13 13 13 14 15 15 15 14 14 12 12 11 10 10 10 8 6 4 3 2 2 2 2 2 2 2 1 1 1 1 2 3 3 2 2 1 1 0 0
12 12 13 13 14 14 13 12 12 13 14 14 14 13 13 12 11 10 9 9 8 7 6 4 3 2 2 2 2 1 2 2 2 1 1 1 2 2 3 3 2 2 1 0 0
13 14 13 13 13 13 13 12 12 12 13 13 13 13 13 12 11 10 8 8 7 6 5 3 3 2 3 3 2 1 1 2 2 2 2 2 2 3 3 3 3 2 2 1 0
15 15 14 14 13 13 13 12 12 13 13 13 13 13 13 12 12 10 8 7 7 6 5 3 2 2 2 2 2 1 2 2 2 2 2 2 2 3 4 3 3 3 2 1 1